LZ3VG Weather Reports


time (UTC)temp
C
wind
direction
speed
KPH
gust
KPH
rain 1hr
cm
rain 24hr
cm
rain mn
cm
humidity
%
barometer
mb
20260504050519 7 189 3.2 8.0 0.00 0.00 0.00 81 1016.5
20260504045543 7 212 4.8 11.3 0.00 0.00 0.00 82 1016.4
20260504044519 6 165 6.4 11.3 0.00 0.00 0.00 84 1016.4
20260504043603 6 183 8.0 12.9 0.00 0.00 0.00 86 1016.4
20260504042519 5 135 4.8 9.7 0.00 0.00 0.00 88 1016.4
20260504041544 5 115 3.2 8.0 0.00 0.00 0.00 91 1016.3
20260504040612 5 162 6.4 9.7 0.00 0.00 0.00 91 1016.3
20260504035532 5 163 6.4 11.3 0.00 0.00 0.00 89 1016.2
20260504034519 5 42 1.6 4.8 0.00 0.00 0.00 87 1016.1
20260504033603 4 91 1.6 4.8 0.00 0.00 0.00 89 1016.1
20260504032535 4 116 1.6 4.8 0.00 0.00 0.00 91 1016.0
20260504031527 4 118 1.6 4.8 0.00 0.00 0.00 92 1016.0
20260504030520 4 150 3.2 4.8 0.00 0.00 0.00 92 1016.0
20260504025544 4 150 4.8 9.7 0.00 0.00 0.00 91 1015.9
20260504024536 3 162 4.8 9.7 0.00 0.00 0.00 92 1015.9
20260504023527 3 163 4.8 8.0 0.00 0.00 0.00 91 1015.8
20260504022519 4 109 3.2 4.8 0.00 0.00 0.00 86 1015.9
20260504021543 5 351 3.2 8.0 0.00 0.00 0.00 83 1015.9
20260504020536 5 1 1.6 9.7 0.00 0.00 0.00 83 1015.9
20260504015528 5 359 3.2 4.8 0.00 0.00 0.00 85 1015.9
20260504014540 4 1 3.2 8.0 0.00 0.00 0.00 90 1016.0
20260504013545 3 91 3.2 3.2 0.00 0.00 0.00 91 1016.2
20260504012556 3 64 1.6 3.2 0.00 0.00 0.00 90 1016.2
20260504011548 3 175 1.6 8.0 0.00 0.00 0.00 89 1016.3
20260504010535 3 167 1.6 3.2 0.00 0.00 0.00 89 1016.4
20260504005544 3 245 3.2 4.8 0.00 0.00 0.00 90 1016.4
20260504004535 3 244 4.8 9.7 0.00 0.00 0.00 90 1016.6
20260504003527 4 238 4.8 9.7 0.00 0.00 0.00 89 1016.6
20260504002540 4 250 4.8 8.0 0.00 0.00 0.00 88 1016.8
20260504001545 4 287 3.2 4.8 0.00 0.00 0.00 87 1016.8
20260504000537 4 238 4.8 11.3 0.00 0.00 0.00 86 1016.8
20260503235529 4 253 4.8 8.0 0.00 0.00 0.00 86 1016.9
20260503234520 4 47 1.6 4.8 0.00 0.00 0.00 85 1017.0
20260503233528 5 295 3.2 4.8 0.00 0.00 0.00 84 1017.0
20260503232556 6 350 1.6 3.2 0.00 0.00 0.00 80 1017.1
20260503231527 6 343 4.8 9.7 0.00 0.00 0.00 77 1017.1
20260503230520 7 4 3.2 3.2 0.00 0.00 0.00 75 1017.2
20260503225544 7 359 1.6 4.8 0.00 0.00 0.00 74 1017.2
20260503224616 7 5 3.2 8.0 0.00 0.00 0.00 74 1017.2
20260503223528 7 358 4.8 9.7 0.00 0.00 0.00 74 1017.2
20260503222536 7 359 3.2 4.8 0.00 0.00 0.00 72 1017.1
20260503221528 8 352 8.0 12.9 0.00 0.00 0.00 70 1017.1
20260503220519 8 357 9.7 12.9 0.00 0.00 0.00 71 1017.2
20260503215551 7 18 4.8 9.7 0.00 0.00 0.00 72 1017.4
20260503214541 7 352 6.4 11.3 0.00 0.00 0.00 73 1017.4
20260503213544 7 356 8.0 11.3 0.00 0.00 0.00 74 1017.4
20260503212536 7 5 4.8 9.7 0.00 0.00 0.00 75 1017.5
20260503211600 7 357 4.8 8.0 0.00 0.00 0.00 77 1017.3
20260503210536 7 355 9.7 12.9 0.00 0.00 0.00 78 1017.4
20260503205529 6 351 9.7 12.9 0.00 0.00 0.00 78 1017.2
20260503204536 7 349 8.0 12.9 0.00 0.00 0.00 78 1017.3
20260503203604 7 358 6.4 9.7 0.00 0.00 0.00 74 1017.3
20260503202521 8 1 6.4 12.9 0.00 0.00 0.00 73 1017.4
20260503201528 8 358 4.8 8.0 0.00 0.00 0.00 73 1017.5
20260503200519 8 0 6.4 9.7 0.00 0.00 0.00 73 1017.6
20260503195528 8 353 3.2 11.3 0.00 0.00 0.00 75 1017.6
20260503194540 8 3 6.4 11.3 0.00 0.00 0.00 74 1017.6
20260503193534 8 358 6.4 14.5 0.00 0.00 0.00 69 1017.6
20260503192520 8 2 4.8 11.3 0.00 0.00 0.00 69 1017.8
20260503191600 9 348 4.8 9.7 0.00 0.00 0.00 69 1017.7
20260503190541 9 10 4.8 9.7 0.00 0.00 0.00 69 1017.9
20260503185544 10 7 6.4 11.3 0.00 0.00 0.00 68 1018.0
20260503184539 10 357 6.4 12.9 0.00 0.00 0.00 66 1018.1
20260503183544 10 20 4.8 9.7 0.00 0.00 0.00 63 1018.2
20260503182536 10 4 4.8 11.3 0.00 0.00 0.00 62 1018.3
20260503181529 10 13 1.6 8.0 0.00 0.00 0.00 62 1018.4
20260503180552 10 48 1.6 3.2 0.00 0.00 0.00 61 1018.5
20260503175547 10 14 1.6 4.8 0.00 0.00 0.00 60 1018.4
20260503174528 10 353 3.2 4.8 0.00 0.00 0.00 60 1018.4
20260503173544 10 62 1.6 3.2 0.00 0.00 0.00 61 1018.3
20260503173355 11 53 4.8 9.7 0.00 0.00 0.00 60 1018.3
20260503171545 11 52 4.8 9.7 0.00 0.00 0.00 61 1018.3
20260503170520 11 48 4.8 12.9 0.00 0.00 0.00 63 1018.3
20260503131026 12 60 8.0 22.5 0.00 0.00 0.00 69 1018.6
20260503081045 8 5 9.7 20.9 0.00 0.00 0.00 81 1019.9
20260503072033 9 353 11.3 29.0 0.00 0.00 0.00 78 1019.7
20260503071036 10 35 12.9 24.1 0.00 0.00 0.00 77 1019.7
20260503070556 9 332 11.3 20.9 0.00 0.00 0.00 77 1019.7
20260503055025 9 29 8.0 25.7 0.00 0.00 0.00 75 1019.6
20260503054033 8 339 12.9 22.5 0.00 0.00 0.00 79 1019.4
20260503053041 8 33 9.7 22.5 0.00 0.00 0.00 79 1019.2